Regional Weather Roundup
Issued by NWS

Home | Current Version | Previous Version | Graphics & Text | Print | Product List | Glossary On
Versions: 1 2 3 4 5 6 7 8 9 10 11 12 13 14 15 16 17 18 19 20 21 22 23 24 25 26 27 28 29 30 31 32 33 34 35 36 37 38 39 40 41 42 43 44 45 46 47 48 49 50
000
ASUS43 KLOT 202110
RWRIL

ILLINOIS REGIONAL WEATHER ROUNDUP
NATIONAL WEATHER SERVICE CHICAGO/ROMEOVILLE IL
400 PM CDT SUN APR 20 2014

NOTE: "FAIR" INDICATES FEW OR NO CLOUDS BELOW 12,000 FEET WITH NO
SIGNIFICANT WEATHER AND/OR OBSTRUCTIONS TO VISIBILITY.

* THESE STATIONS ARE NOT UNDER NWS QUALITY CONTROL. THEY ALSO MAY NOT
  REPORT WEATHER SUCH AS PRECIPITATION OR FOG.

ILZ001-002-007-009-015-016-024-202200-
NORTHWEST ILLINOIS

CITY           SKY/WX    TMP DP  RH WIND       PRES   REMARKS
MOLINE         SUNNY     81  44  27 S6G21     30.02F HX  80
STERLING*      SUNNY     81  43  26 SW8       30.04F
SAVANNA*       MOSUNNY   82  42  24 S12       30.03F HX  80
$$

ILZ003-004-008-010-011-017-018-202200-
NORTH CENTRAL ILLINOIS

CITY           SKY/WX    TMP DP  RH WIND       PRES   REMARKS
ROCKFORD       PTSUNNY   80  40  23 SW21      30.06F
FREEPORT*      MOSUNNY   81  40  22 SW16G23   30.07F
ROCHELLE*      SUNNY     81  38  21 S17G24    30.06F
DE KALB*       SUNNY     77  41  27 S12G21    30.08F
PERU*          SUNNY     79  40  24 CALM      30.07F
$$

ILZ005-006-012>014-019>023-202200-
NORTHEAST ILLINOIS

CITY           SKY/WX    TMP DP  RH WIND       PRES   REMARKS
CHICAGO-OHARE  PTSUNNY   78  39  24 S9G18     30.08F
CHICAGO-MIDWAY PTSUNNY   78  40  25 S14G25    30.09F
AURORA         MOSUNNY   78  41  26 S12       30.08F
LANSING*       MOSUNNY   76  38  24 S14       30.11F
WAUKEGAN       MOSUNNY   67  39  35 SE13      30.08F
DUPAGE AIRPORT MOSUNNY   79  41  25 SW12      30.08F
KANKAKEE*      MOSUNNY   77  42  29 SE6       30.12F
WHEELING       MOSUNNY   77  42  28 S16G25    30.09F
MORRIS*        MOSUNNY   80  26  14 S12G17    30.08F
ROMEOVILLE*    MOSUNNY   77  37  23 SW13G18   30.09F
NORTHERLY ISL    N/A     59  42  53 S6          N/A
$$

LMZ740>746-202200-
SOUTHERN LAKE MICHIGAN

STATION/POSITION SKY/WX   TEMP    WIND        PRES    VSBY  WAVE
                          AIR SEA DIR/SP/G                  HT/PER
                          (F)     (DEG/KT/KT) (MB)    (MI)  (FT/S)
WAUKEGAN HARBOR            53     180/ 10/ 12 1020.3F
HARRISON CRIB              68     110/ 17/ 21   N/A
BURNHAM HARBOR             59     160/  5/ 12   N/A
CALUMET HARBOR             74     190/ 10/ 13 1019.9F
MICHIGAN CITY              58      40/ 10/ 10   N/A
$$

ILZ025>027-034>036-040-047-049-050-058-095>099-202200-
WEST-CENTRAL ILLINOIS

CITY           SKY/WX    TMP DP  RH WIND       PRES   REMARKS
QUINCY         MOSUNNY   80  48  32 S13       30.05F
GALESBURG*     MOSUNNY   81  48  32 S13       30.04F HX  80
MACOMB*        MOSUNNY   82  44  26 S14G23    30.07F HX  80
JACKSONVILLE*  SUNNY     81  39  22 SW8       30.08F
PITTSFIELD*    SUNNY     80  41  24 S13G18    30.07F
$$

ILZ028>032-037-038-041>044-048-051>054-059>061-202200-
CENTRAL ILLINOIS

CITY           SKY/WX    TMP DP  RH WIND       PRES   REMARKS
PONTIAC        SUNNY     81  37  21 S6        30.09F
BLOOMINGTON    SUNNY     78  40  25 SW17      30.10F
DECATUR        SUNNY     78  42  27 S13       30.11F
PEORIA         SUNNY     81  43  26 SW14      30.06F
LACON*         SUNNY     79  42  27 SW14      30.06F
LINCOLN*       SUNNY     81  39  22 S10G18    30.06F
SPRINGFIELD    MOSUNNY   80  39  23 S12G21    30.08F
TAYLORVILLE    MOSUNNY   77  41  27 S8        30.10F
$$

ILZ033-039-045-046-055>057-062-063-202200-
EAST-CENTRAL ILLINOIS

CITY           SKY/WX    TMP DP  RH WIND       PRES   REMARKS
CHAMPAIGN      SUNNY     79  39  23 SW6       30.12F
RANTOUL*       SUNNY     80  32  17 CALM      30.12F
MATTOON        SUNNY     73  45  36 S9        30.13F
PARIS*         MOSUNNY   75  41  28 S8        30.14F
$$

ILZ079-100>102-202200-
SOUTHWEST ILLINOIS

CITY           SKY/WX    TMP DP  RH WIND       PRES   REMARKS
ALTON          MOSUNNY   79  37  22 S14       30.09F
BELLEVILLE     SUNNY     79  45  29 S7        30.09F
CAHOKIA*       SUNNY     80  45  28 SE9       30.08F
SPARTA*        SUNNY     77  43  29 SE6       30.11F
$$

ILZ064>066-069>071-074>076-080>082-084>086-088>090-092>094-202200-
SOUTH-CENTRAL ILLINOIS

CITY           SKY/WX    TMP DP  RH WIND       PRES   REMARKS
CARBONDALE     SUNNY     77  45  32 VRB5      30.11F
CAIRO*         PTSUNNY   80  41  24 SE3       30.12F
MARION         PTSUNNY   79  43  27 S9        30.13F
MT. VERNON     SUNNY     79  46  31 S7        30.13F
CENTRALIA*       N/A     76  41  28 CALM      30.11F
SALEM*         SUNNY     77  48  35 S6        30.13F
METROPOLIS*    MOSUNNY   78  35  21 SW3       30.12F
$$

ILZ067-068-072-073-078-083-087-091-202200-
SOUTHEAST ILLINOIS

CITY           SKY/WX    TMP DP  RH WIND       PRES   REMARKS
FAIRFIELD*     SUNNY     77  45  31 SE7       30.13F
HARRISBURG*    SUNNY     77  40  25 CALM      30.13F
ROBINSON*      MOSUNNY   77  41  27 CALM      30.14F
CARMI*         SUNNY     78  44  29 CALM      30.13F
$$

ABBREVIATIONS USED IN REMARKS
   TC - TEMPERATURE IN CELSIUS
  WCI - WIND CHILL INDEX
   HX - HEAT INDEX
  VSB - VISIBILITY
$$




USA.gov is the U.S. government's official web portal to all federal, state and local government web resources and services.